Home > Weather > Wichita Falls > Past weeks

Flag for USA Past Weather in Wichita Falls, Texas, USA — Yesterday and Last 2 Weeks

Now
93 °F

Passing clouds.


Feels Like: 96 °F
Forecast: 76 / 96 °F
Wind: 15 mph from South

Location: Wichita Falls - Sheppard Air Force Base

Current Time: Jun 24, 2016 at 5:16:30 PM

Latest Report: Jun 24, 2016 at 4:52 PM


Visibility: 10 mi

Pressure: 29.90 "Hg

Humidity: 41%

Dew Point: 66 °F

Location of Wichita FallsLocation

Past Weather in Wichita Falls — Graph

°F

Wichita Falls Temperature Yesterday

Maximum temperature yesterday: 95 °F (at 2:52 PM)
Minimum temperature yesterday: 73 °F (at 5:52 AM)
Average temperature yesterday: 84 °F

High & Low Weather Summary for the Past Weeks

 TemperatureHumidityPressure
High96 °F (Jun 17, 4:52 PM)100% (Jun 13, 6:52 AM)30.17 "Hg (Jun 13, 6:52 AM)
Low68 °F (Jun 14, 3:52 AM)36% (Jun 21, 1:52 PM)29.71 "Hg (Jun 14, 6:52 PM)
Average82 °F70%29.92 "Hg
* Reported Jun 9 3:52 PM — Jun 24 3:52 PM, Wichita Falls, Weather by CustomWeather, © 2016

Note: Actual official high and low records may vary slightly from our data, if they occured in-between our weather recording intervals... More about our weather records

Advertising

Wichita Falls Weather History for the Previous 24 Hours

Scroll right to see more
 ConditionsComfort  
Time TempWeatherWind HumidityBarometerVisibility
3:52 PM
Fri, Jun 24
94 °FPassing clouds.18 mph43%29.91 "Hg10 mi
2:52 PM92 °FPassing clouds.18 mph44%29.93 "Hg10 mi
1:52 PM92 °FSunny.14 mph46%29.94 "Hg10 mi
12:52 PM91 °FSunny.17 mph50%29.94 "Hg10 mi
11:52 AM90 °FSunny.16 mph52%29.96 "Hg10 mi
10:52 AM88 °FSunny.14 mph55%29.98 "Hg10 mi
9:52 AM83 °FPartly sunny.14 mph61%30.00 "Hg10 mi
8:52 AM82 °FScattered clouds.14 mph65%30.00 "Hg10 mi
7:52 AM78 °FPassing clouds.10 mph74%30.00 "Hg10 mi
6:52 AM75 °FPassing clouds.10 mph79%29.98 "Hg10 mi
5:52 AM75 °FClear.10 mph79%29.95 "Hg10 mi
4:52 AM73 °FClear.9 mph84%29.95 "Hg10 mi
3:52 AM74 °FClear.8 mph85%29.94 "Hg10 mi
2:52 AM76 °FClear.8 mph80%29.94 "Hg10 mi
1:52 AM78 °FClear.9 mph74%29.93 "Hg10 mi
12:52 AM79 °FClear.12 mph72%29.94 "Hg10 mi
11:52 PM
Thu, Jun 23
77 °FClear.9 mph77%29.95 "Hg10 mi
10:52 PM79 °FClear.8 mph72%29.92 "Hg10 mi
9:52 PM82 °FClear.12 mph65%29.90 "Hg10 mi
8:52 PM85 °FSunny.10 mph59%29.89 "Hg10 mi
7:52 PM90 °FSunny.6 mph48%29.89 "Hg10 mi
6:52 PM93 °FSunny.17 mph44%29.89 "Hg10 mi
5:52 PM94 °FPassing clouds.15 mph46%29.89 "Hg10 mi
Weather by CustomWeather, © 2016

See weather overviewHow to use our weather pages